KL7GG Weather Reports


Display with metric or nautical units.
time (UTC)temp
F
wind
direction
speed
MPH
gust
MPH
rain 1hr
in
rain 24hr
in
rain mn
in
humidity
%
barometer
mb
20260905034534 60 0 0.0 0.0 0.00 0.00 0.00 79 1015.2
20260905033029 60 0 0.0 0.0 0.00 0.00 0.00 76 1015.3
20260905031525 61 0 0.0 0.0 0.00 0.00 0.00 74 1015.3
20260905030021 62 0 0.0 0.0 0.00 0.00 0.00 73 1015.2
20260905024517 62 0 0.0 0.0 0.00 0.00 0.00 70 1015.4
20260905023011 63 0 0.0 6.0 0.00 0.00 0.00 66 1015.6
20260905020002 64 0 0.0 6.0 0.00 0.00 0.00 65 1015.7
20260905014457 64 0 0.0 0.0 0.00 0.00 0.00 65 1015.7
20260905012953 65 0 0.0 1.0 0.00 0.00 0.00 60 1015.8
20260905011449 65 330 1.0 6.0 0.00 0.00 0.00 62 1016.0
20260905005946 66 0 0.0 0.0 0.00 0.00 0.00 58 1015.9
20260905004441 65 0 0.0 1.0 0.00 0.00 0.00 56 1016.2
20260905002935 66 0 0.0 4.0 0.00 0.00 0.00 57 1016.5
20260905001432 66 301 3.0 10.0 0.00 0.00 0.00 53 1016.7
20260904235927 66 0 0.0 4.0 0.00 0.00 0.00 53 1016.6
20260904234423 65 0 0.0 6.0 0.00 0.00 0.00 54 1016.8
20260904232918 65 262 4.0 10.0 0.00 0.00 0.00 53 1016.9
20260904231414 65 310 2.0 10.0 0.00 0.00 0.00 55 1017.0
20260904224407 63 0 0.0 10.0 0.00 0.00 0.00 59 1017.3
20260904222900 62 291 3.0 11.0 0.00 0.00 0.00 65 1017.4
20260904215850 59 0 0.0 4.0 0.00 0.00 0.00 69 1017.4
20260904214347 58 0 0.0 1.0 0.00 0.00 0.00 70 1017.8
20260904212842 58 0 0.0 0.0 0.00 0.00 0.00 71 1017.9
20260904211338 57 0 0.0 0.0 0.00 0.00 0.00 76 1018.0
20260904205835 57 0 0.0 2.0 0.00 0.00 0.00 78 1018.1
20260904202827 56 0 0.0 0.0 0.00 0.00 0.00 80 1018.3
20260904201322 55 0 0.0 0.0 0.00 0.00 0.00 78 1018.3
20260904194312 55 0 0.0 0.0 0.00 0.00 0.00 81 1018.0
20260904192810 54 0 0.0 0.0 0.00 0.00 0.00 81 1018.2
20260904191305 54 0 0.0 1.0 0.00 0.00 0.00 84 1017.9
20260904185801 53 0 0.0 0.0 0.00 0.00 0.00 84 1018.0
20260904184257 53 0 0.0 0.0 0.00 0.00 0.00 87 1017.9
20260904182752 52 0 0.0 0.0 0.00 0.00 0.00 88 1018.0
20260904181249 51 0 0.0 2.0 0.00 0.00 0.00 88 1018.0
20260904175744 50 0 0.0 3.0 0.00 0.00 0.00 89 1018.0
20260904174241 49 0 0.0 1.0 0.00 0.00 0.00 89 1018.4
20260904172737 48 0 0.0 4.0 0.00 0.00 0.00 90 1018.0
20260904171233 48 0 0.0 0.0 0.00 0.00 0.00 91 1018.0
20260904165729 47 0 0.0 1.0 0.00 0.00 0.00 91 1018.0
20260904164225 47 0 0.0 3.0 0.00 0.00 0.00 91 1017.9
20260904162722 47 118 2.0 5.0 0.00 0.00 0.00 92 1018.1
20260904161217 47 0 0.0 0.0 0.00 0.00 0.00 92 1018.1
20260904155711 46 0 0.0 3.0 0.00 0.00 0.00 92 1018.3
20260904154207 46 0 0.0 0.0 0.00 0.00 0.00 92 1018.3
20260904152703 46 0 0.0 0.0 0.00 0.00 0.00 92 1018.4
20260904151158 46 0 0.0 0.0 0.00 0.00 0.00 92 1018.4
20260904145655 46 0 0.0 0.0 0.00 0.00 0.00 92 1018.6
20260904144150 46 0 0.0 2.0 0.00 0.00 0.00 93 1018.4
20260904142647 46 0 0.0 2.0 0.00 0.00 0.00 93 1018.2
20260904141143 45 0 0.0 1.0 0.00 0.00 0.00 92 1018.3
20260904135637 45 0 0.0 0.0 0.00 0.00 0.00 92 1018.4
20260904134133 45 0 0.0 1.0 0.00 0.00 0.00 92 1018.3
20260904132629 45 0 0.0 0.0 0.00 0.00 0.00 91 1018.4
20260904131125 45 0 0.0 0.0 0.00 0.00 0.00 91 1018.2
20260904124114 45 0 0.0 0.0 0.00 0.00 0.00 90 1018.3
20260904122611 46 0 0.0 0.0 0.00 0.00 0.00 91 1018.4
20260904121106 46 0 0.0 0.0 0.00 0.00 0.00 90 1018.4
20260904115603 47 0 0.0 0.0 0.00 0.00 0.00 90 1018.5
20260904114059 47 0 0.0 0.0 0.00 0.00 0.00 90 1018.4
20260904112552 48 0 0.0 0.0 0.00 0.00 0.00 90 1018.3
20260904105543 48 0 0.0 0.0 0.00 0.00 0.00 90 1018.3
20260904102536 48 0 0.0 0.0 0.00 0.00 0.00 90 1018.3
20260904101031 47 0 0.0 3.0 0.00 0.00 0.00 89 1018.3
20260904095527 47 0 0.0 0.0 0.00 0.00 0.00 89 1017.8
20260904094023 47 0 0.0 0.0 0.00 0.00 0.00 89 1017.9
20260904092519 47 0 0.0 0.0 0.00 0.00 0.00 88 1017.9
20260904091014 48 0 0.0 0.0 0.00 0.00 0.00 88 1017.9
20260904085511 48 0 0.0 0.0 0.00 0.00 0.00 88 1018.1
20260904084004 48 0 0.0 0.0 0.00 0.00 0.00 88 1018.1
20260904082501 48 0 0.0 0.0 0.00 0.00 0.00 87 1018.2
20260904075453 49 0 0.0 1.0 0.00 0.00 0.00 86 1018.3
20260904073948 49 0 0.0 0.0 0.00 0.00 0.00 84 1018.4
20260904072445 50 0 0.0 0.0 0.00 0.00 0.00 84 1018.3
20260904070940 50 0 0.0 0.0 0.00 0.00 0.00 84 1018.1
20260904065437 51 0 0.0 0.0 0.00 0.00 0.00 83 1018.3
20260904063932 51 0 0.0 0.0 0.00 0.00 0.00 82 1018.2
20260904062429 51 0 0.0 0.0 0.00 0.00 0.00 81 1018.2
20260904060924 52 0 0.0 0.0 0.00 0.00 0.00 80 1018.3
20260904055421 52 0 0.0 0.0 0.00 0.00 0.00 81 1018.1
20260904053917 52 0 0.0 0.0 0.00 0.00 0.00 79 1018.2
20260904052412 53 0 0.0 0.0 0.00 0.00 0.00 77 1018.2
20260904050909 53 0 0.0 0.0 0.00 0.00 0.00 77 1018.1
20260904045404 54 0 0.0 0.0 0.00 0.00 0.00 75 1018.1
20260904043901 55 0 0.0 0.0 0.00 0.00 0.00 75 1018.3
20260904042357 55 0 0.0 0.0 0.00 0.00 0.00 73 1018.1
20260904040853 55 0 0.0 0.0 0.00 0.00 0.00 72 1018.1
20260904035349 56 0 0.0 0.0 0.00 0.00 0.00 69 1018.3